This is the latest recevied weather packets stored in our database for station/object N6XE-13. If no packets are shown the sender has not sent any weather packets the latest 10 day(s).
| Time | Temp. | Humidity | Pressure | Rain* | Wind** | Luminosity | Snow |
|---|---|---|---|---|---|---|---|
| 1777651205 | 18.33° C | 71% | 1016.8 hPa | 0 mm | - | - | - |
| 1777649405 | 17.22° C | 74% | 1016.7 hPa | 0 mm | - | - | - |
| 1777647605 | 15° C | 83% | 1016.5 hPa | 0 mm | - | - | - |
| 1777645805 | 13.33° C | 88% | 1016.2 hPa | 0 mm | - | - | - |
| 1777644005 | 12.22° C | 93% | 1015.8 hPa | 0 mm | - | - | - |
| 1777642206 | 12.22° C | 92% | 1015.4 hPa | 0 mm | - | - | - |
| 1777640406 | 12.78° C | 89% | 1015.2 hPa | 0 mm | - | - | - |
| 1777638606 | 13.33° C | 87% | 1015.2 hPa | 0 mm | - | - | - |
| 1777636806 | 13.33° C | 86% | 1015.1 hPa | 0 mm | - | - | - |
| 1777635006 | 13.33° C | 86% | 1015.1 hPa | 0 mm | - | - | - |
| 1777633206 | 13.33° C | 85% | 1014.8 hPa | 0 mm | - | - | - |
| 1777631405 | 13.33° C | 85% | 1014.8 hPa | 0 mm | - | - | - |
| 1777629605 | 13.33° C | 85% | 1014.8 hPa | 0 mm | - | - | - |
| 1777627805 | 13.89° C | 82% | 1014.6 hPa | 0 mm | - | - | - |
| 1777626005 | 14.44° C | 79% | 1014.8 hPa | 0 mm | - | - | - |
| 1777624205 | 14.44° C | 78% | 1015 hPa | 0 mm | - | - | - |
| 1777622405 | 15° C | 75% | 1015.1 hPa | 0 mm | - | - | - |
| 1777620605 | 15.56° C | 71% | 1015.1 hPa | 0 mm | - | - | - |
| 1777618805 | 16.11° C | 67% | 1014.7 hPa | 0 mm | - | - | - |
| 1777617005 | 16.67° C | 67% | 1014.8 hPa | 0 mm | - | - | - |
| 1777615206 | 17.22° C | 66% | 1014.8 hPa | 0 mm | - | - | - |
| 1777613406 | 17.78° C | 66% | 1014.8 hPa | 0 mm | - | - | - |
| 1777611606 | 18.89° C | 64% | 1014.7 hPa | 0 mm | - | - | - |
| 1777609806 | 20° C | 60% | 1014.5 hPa | 0 mm | - | - | - |
| 1777608006 | 20.56° C | 57% | 1014.2 hPa | 0 mm | - | - | - |
* Rain latest hour (hover to see other rain measurements)
** Current wind speed in m/s (hover to see current wind gust speed)